Regional Weather Roundup
Issued by NWS

Home | Current Version | Previous Version | Text Only | Print | Product List | Glossary On
Versions: 1 2 3 4 5 6 7 8 9 10 11 12 13 14 15 16 17 18 19 20 21 22 23 24 25 26 27 28 29 30 31 32 33 34 35 36 37 38 39 40 41 42 43 44 45 46 47 48 49
000
ASUS43 KDMX 030907
RWRIA

WEATHER ROUNDUP FOR IOWA
NATIONAL WEATHER SERVICE DES MOINES IA
400 AM CDT WED JUN 03 2015

NOTE: "FAIR" INDICATES FEW OR NO CLOUDS BELOW 12,000 FEET WITH NO
SIGNIFICANT WEATHER AND/OR OBSTRUCTIONS TO VISIBILITY.

* - THESE STATIONS ARE NOT NWS STATIONS...THUS NOT UNDER NWS
QUALITY CONTROL.  THEY ALSO DO NOT REPORT WEATHER SUCH
AS PRECIPITATION OR FOG.

IAZ001>003-012>014-020>022-031>034-043>046-031000-
   NORTHWEST IOWA

CITY           SKY/WX    TMP DP  RH WIND       PRES   REMARKS
CARROLL *      CLOUDY    61  57  88 S12       29.90S
CHEROKEE *     CLOUDY    63  59  88 S10       29.85F
DENISON *      MOCLDY    63  61  94 S12G21    29.85F
LE MARS *      CLOUDY    64  59  82 S13G25    29.88R
ORANGE CITY *  MOCLDY    61  57  88 W16G24    29.89R
SHELDON *      CLOUDY    63  63 100 S15G22    29.83F
SIOUX CITY     TSTM      64  59  83 SW7       29.88R
SPENCER        CLOUDY    63  57  81 S13       29.87F
STORM LAKE *   MOCLDY    61  57  88 S14       29.88F
$$

IAZ055>058-069>071-079>083-090>094-031000-
   SOUTHWEST IOWA

CITY           SKY/WX    TMP DP  RH WIND       PRES   REMARKS
ATLANTIC *     CLOUDY    63  57  82 S8        29.91S
AUDUBON *      PTCLDY    63  55  77 S9        29.91F
CLARINDA *     CLOUDY    63  59  88 S8        29.91F
COUNCIL BLFS * PTCLDY    63  63 100 S13       29.87F
CRESTON *      CLOUDY    61  59  94 S12       29.93S
HARLAN  *      MOCLDY    63  63 100 S10G17    29.92S
LAMONI         PTCLDY    62  56  80 SE9       29.94F
RED OAK *      MOCLDY    63  59  88 SE10      29.89F
SHENANDOAH *   CLEAR     64  59  82 SE7       29.89S
$$

IAZ047>049-059>061-072>074-084-031000-
   CENTRAL IOWA

CITY           SKY/WX    TMP DP  RH WIND       PRES   REMARKS
AMES           MOCLDY    61  55  81 SE14      29.93F
ANKENY *       MOCLDY    61  57  88 S8G15     29.94S
CHARITON *     CLOUDY    61  57  88 S13       29.95F
DES MOINES     MOCLDY    61  55  81 S8        29.94F
GRINNELL*      PTCLDY    57  54  88 SE8       29.98F
KNOXVILLE *    PTCLDY    59  55  88 SE7       29.95F
MARSHALLTOWN   MOCLDY    59  55  87 SE10      29.95F
PELLA *        PTCLDY    59  57  94 SE6       29.98F
PERRY *        CLOUDY    61  55  82 S12       29.91F
$$

IAZ004>006-015-016-023>025-035-036-031000-
   NORTH CENTRAL IOWA

CITY           SKY/WX    TMP DP  RH WIND       PRES   REMARKS
ALGONA *       CLOUDY    63  57  82 S18       29.90S
CLARION *      CLOUDY    63  55  77 S16       29.92S
ESTHERVILLE    CLOUDY    61  55  81 S18       29.87F
FORT DODGE *   CLOUDY    63  54  72 S12G17    29.91S
MASON CITY     MOCLDY    60  55  83 S12       29.94F
FOREST CITY *  CLOUDY    61  54  77 S13       29.92S
IOWA FALLS *     N/A     59  55  88 S14       29.94F
$$

IAZ007>011-017>019-026>030-037>042-050>054-066-031000-
   NORTHEAST IOWA

CITY           SKY/WX    TMP DP  RH WIND       PRES   REMARKS
CEDAR RAPIDS   PTCLDY    56  55  97 S3        30.00R
CHARLES CITY * PTCLDY    59  57  94 SE12      29.95F
CLINTON *      PTCLDY    57  48  72 SE8       30.05R
DECORAH *      PTCLDY    57  54  88 S5        29.98S
DUBUQUE        PTCLDY    53  49  86 S3        30.02S
MONTICELLO *   CLEAR     55  54  94 SE5       30.01S
OELWEIN *      CLEAR     57  54  88 S8        30.00S
WATERLOO       PTCLDY    59  54  83 S8        29.97S
$$

IAZ064-065-067-068-078-031000-
   EAST CENTRAL IOWA

CITY           SKY/WX    TMP DP  RH WIND       PRES   REMARKS
DAVENPORT      CLEAR     56  50  80 SE6       30.02F
IOWA CITY      PTCLDY    57  54  89 CALM      30.01F
MT. PLEASANT * PTCLDY    54  54 100 SE6       30.00F
MUSCATINE *    PTCLDY    55  54  94 CALM      30.01F
QUAD CITIES    CLEAR     54  49  83 E6        30.01F
$$

IAZ062-063-075>077-085>089-095>099-031000-
   SOUTHEAST IOWA

CITY           SKY/WX    TMP DP  RH WIND       PRES   REMARKS
BURLINGTON     CLEAR     58  55  90 S7        30.01S
FAIRFIELD *    CLEAR     54  52  94 SE5       30.00F
FORT MADISON *   N/A     57  55  94 S5        30.02F
KEOKUK *       CLEAR     59  57  94 S6        30.01S
OSKALOOSA *      N/A     55  54  94 SE6       29.99F
CENTERVILLE *  CLEAR     55  55 100 S7        29.99F
OTTUMWA        CLEAR     57  55  93 S7        29.98F
WASHINGTON *   PTCLDY    54  54 100 SE6       30.01F
$$

ABBREVIATIONS USED IN REMARKS
   TC - TEMPERATURES IN CELSIUS
  WCI - WIND CHILL INDEX
   HX - HEAT INDEX
  VSB - VISIBILITY
$$



USA.gov is the U.S. government's official web portal to all federal, state and local government web resources and services.